Location: Aghk�ilisa
(40.0189°N, 45.0097°E)
Time: 23:47:23
(UTC+00:00)

H-2A R/B - Pass Details

Date: 21 October 2019
Orbit: 734 x 837 km, 98.3° (Epoch: 14 November)

Event Time Altitude Azimuth Distance (km) Brightness Sun altitude
Exits shadow 15:21:42 11° 46° (NE) 2,365 4.1 -13.9°
Drops below altitude 10° 15:22:21 10° 39° (NE) 2,435 4.2 -14.1°
Sets 15:26:29 0° 9° (N) 3,388 5.2 -14.9°
